Tracking 28790 objects as of 19-Apr-2024
HD Live streaming from Space Station
objects crossing your sky now

AMC-21

Track AMC-21 now!
AMC-21 is classified as:


NORAD ID: 33275
Int'l Code: 2008-038B
Perigee: 35,781.1 km
Apogee: 35,805.3 km
Inclination: 0.9 °
Period: 1,436.1 minutes
Semi major axis: 42164 km
RCS: 19.9526 m2 (large)
Launch date: August 14, 2008
Source: SOCIETE EUROPEENNE DES SATELLITES (SES)
Launch site: FRENCH GUIANA (FRGUI)

AMC 21, also known as Americom 21, carries 24 Ku-band transponders and two reflector antennas to provide television services to the United States, Canada, Mexico and Caribbean countries, after parking over 125° W longitude.
Your satellite tracking list
Your tracking list is empty




NASA's NSSDC Master Catalog

Two Line Element Set (TLE):
1 33275U 08038B   24109.65252972  .00000032  00000-0  00000-0 0  9998
2 33275   0.9035  90.7167 0002871 299.0036 287.5351  1.00273856 57573
Source of the keplerian elements: AFSPC